2024/03/03 00:00:00,35.8,-6.9
2024/03/03 00:10:00,35.8,-7.0
2024/03/03 00:20:00,35.7,-7.0
2024/03/03 00:30:00,35.6,-7.1
2024/03/03 00:40:00,35.6,-6.8
2024/03/03 00:50:00,35.5,-6.9
2024/03/03 01:00:00,35.4,-6.9
2024/03/03 01:10:00,35.2,-7.2
2024/03/03 01:20:00,35.1,-6.6
2024/03/03 01:30:00,35.0,-6.7
2024/03/03 01:40:00,34.9,-6.9
2024/03/03 01:50:00,34.9,-6.6
2024/03/03 02:00:00,34.8,-6.8
2024/03/03 02:10:00,34.8,-6.8
2024/03/03 02:20:00,34.7,-6.5
2024/03/03 02:30:00,34.6,-6.9
2024/03/03 02:40:00,34.6,-6.8
2024/03/03 02:50:00,34.5,-6.3
2024/03/03 03:00:00,34.5,-6.5
2024/03/03 03:10:00,34.4,-6.5
2024/03/03 03:20:00,34.4,-6.1
2024/03/03 03:30:00,34.3,-6.2
2024/03/03 03:40:00,34.3,-6.6
2024/03/03 03:50:00,34.2,-6.2
2024/03/03 04:00:00,34.2,-6.2
2024/03/03 04:10:00,34.1,-5.8
2024/03/03 04:20:00,34.0,-5.3
2024/03/03 04:30:00,34.0,-5.2
2024/03/03 04:40:00,33.9,-5.1
2024/03/03 04:50:00,33.8,-5.5
2024/03/03 05:00:00,33.8,-5.5
2024/03/03 05:10:00,33.7,-5.5
2024/03/03 05:20:00,33.6,-4.9
2024/03/03 05:30:00,33.6,-4.2
2024/03/03 05:40:00,33.4,-4.3
2024/03/03 05:50:00,33.4,-3.8
2024/03/03 06:00:00,33.3,-3.6
2024/03/03 06:10:00,33.2,-3.0
2024/03/03 06:20:00,33.2,-3.5
2024/03/03 06:30:00,33.1,-3.3
2024/03/03 06:40:00,33.0,-3.6
2024/03/03 06:50:00,33.0,-4.2
2024/03/03 07:00:00,32.9,-4.3
2024/03/03 07:10:00,32.9,-4.4
2024/03/03 07:20:00,32.8,-4.4
2024/03/03 07:30:00,32.8,-4.4
2024/03/03 07:40:00,32.8,-4.3
2024/03/03 07:50:00,32.6,-4.1
2024/03/03 08:00:00,32.6,-4.2
2024/03/03 08:10:00,32.5,-3.8
2024/03/03 08:20:00,32.6,-2.8
2024/03/03 08:30:00,32.6,-1.5
2024/03/03 08:40:00,32.5,-0.9
2024/03/03 08:50:00,32.6,-0.7
2024/03/03 09:00:00,32.5, 0.1
2024/03/03 09:10:00,32.4, 0.6
2024/03/03 09:20:00,32.5, 1.5
2024/03/03 09:30:00,32.5, 1.6
2024/03/03 09:40:00,32.9, 3.5
2024/03/03 09:50:00,33.6, 4.6
2024/03/03 10:00:00,33.1, 5.0
2024/03/03 10:10:00,33.5, 6.2
2024/03/03 10:20:00,32.6, 6.4
2024/03/03 10:30:00,32.5, 6.4
2024/03/03 10:40:00,33.5, 6.8
2024/03/03 10:50:00,32.2, 6.8
2024/03/03 11:00:00,31.9, 7.6
2024/03/03 11:10:00,32.2, 8.1
2024/03/03 11:20:00,32.0, 8.7
2024/03/03 11:30:00,30.8, 8.6
2024/03/03 11:40:00,30.4, 8.7
2024/03/03 11:50:00,29.6, 7.2
2024/03/03 12:00:00,29.4, 7.1
2024/03/03 12:10:00,29.6, 6.6
2024/03/03 12:20:00,29.6, 8.3
2024/03/03 12:30:00,29.5, 9.0
2024/03/03 12:40:00,29.6,10.1
2024/03/03 12:50:00,29.2, 7.6
2024/03/03 13:00:00,28.4, 4.8
2024/03/03 13:10:00,28.0, 4.0
2024/03/03 13:20:00,27.8, 3.3
2024/03/03 13:30:00,27.5, 2.9
2024/03/03 13:40:00,27.2, 2.8
2024/03/03 13:50:00,27.0, 2.6
2024/03/03 14:00:00,27.0, 2.9
2024/03/03 14:10:00,27.0, 3.1
2024/03/03 14:20:00,26.8, 2.8
2024/03/03 14:30:00,26.6, 2.2
2024/03/03 14:40:00,26.4, 1.9
2024/03/03 14:50:00,26.3, 1.8
2024/03/03 15:00:00,26.5, 1.9
2024/03/03 15:10:00,26.8, 3.5
2024/03/03 15:20:00,26.8, 4.4
2024/03/03 15:30:00,26.2, 2.7
2024/03/03 15:40:00,25.8, 2.2
2024/03/03 15:50:00,25.6, 1.9
2024/03/03 16:00:00,25.8, 3.2
2024/03/03 16:10:00,25.7, 3.2
2024/03/03 16:20:00,25.4, 2.6
2024/03/03 16:30:00,25.3, 2.8
2024/03/03 16:40:00,25.0, 2.1
2024/03/03 16:50:00,24.9, 1.9
2024/03/03 17:00:00,24.9, 1.9
2024/03/03 17:10:00,24.7, 1.7
2024/03/03 17:20:00,24.6, 1.8
2024/03/03 17:30:00,24.6, 1.9
2024/03/03 17:40:00,24.5, 1.7
2024/03/03 17:50:00,24.3, 0.8
2024/03/03 18:00:00,24.3, 0.6
2024/03/03 18:10:00,24.2, 0.2
2024/03/03 18:20:00,24.2,-0.1
2024/03/03 18:30:00,24.2, 0.0
2024/03/03 18:40:00,24.2,-0.7
2024/03/03 18:50:00,24.2,-0.6
2024/03/03 19:00:00,24.1,-0.6
2024/03/03 19:10:00,24.1,-0.6
2024/03/03 19:20:00,24.2,-0.3
2024/03/03 19:30:00,24.2,-0.7
2024/03/03 19:40:00,24.1,-1.2
2024/03/03 19:50:00,24.1,-1.2
2024/03/03 20:00:00,24.1,-1.6
2024/03/03 20:10:00,24.0,-1.7
2024/03/03 20:20:00,24.0,-2.0
2024/03/03 20:30:00,24.0,-1.8
2024/03/03 20:40:00,24.0,-1.8
2024/03/03 20:50:00,23.9,-2.0
2024/03/03 21:00:00,23.9,-2.0
2024/03/03 21:10:00,23.9,-2.2
2024/03/03 21:20:00,23.9,-2.3
2024/03/03 21:30:00,23.9,-2.2
2024/03/03 21:40:00,23.9,-2.3
2024/03/03 21:50:00,23.8,-2.1
2024/03/03 22:00:00,23.8,-1.6
2024/03/03 22:10:00,23.8,-1.4
2024/03/03 22:20:00,23.8,-1.2
2024/03/03 22:30:00,23.8,-1.2
2024/03/03 22:40:00,23.8,-1.1
2024/03/03 22:50:00,23.7,-0.8
2024/03/03 23:00:00,23.7,-0.9
2024/03/03 23:10:00,23.7,-0.7
2024/03/03 23:20:00,23.7,-0.7
2024/03/03 23:30:00,23.7,-0.6
2024/03/03 23:40:00,23.6,-0.5
2024/03/03 23:50:00,23.5,-0.6
